Starlink 4544

operational
NORAD ID: 53394 Int'l Des: 2022-097 Owner: SPXS Country: US Constellation: starlink
LEOCIRCULAR

Starlink 4544について

説明を読み込み中...

リアルタイム位置

3D地球を読み込み中...

次回通過

高度履歴

Altitude vs Time

uPlot chart will show altitude changes over time

軌道要素

1 53394U 22097G 25302.49903377 .00003661 00000-0 24800-3 0 9991
2 53394 53.2182 342.6709 0001493 69.4152 290.7000 15.08838204179017
Epoch: Oct 29, 2025 • Age: 12 hours

現在のステータス

高度 540.3 km
速度 7.60 km/s
衛星直下点 23.08°N, 106.89°E
打ち上げ日 Aug 10, 2022
運用期間 3.2 years
タイプ internet

技術仕様

分類 Payload
質量 297.00 kg
乾燥質量 275.00 kg
総質量 297.00 kg
長さ 0.20 m
直径 2.80 m
スパン 9.00 m
形状 Box + pan
製造者 SPXS
バスタイプ Starlink
フェーズステータス In Orbit
所有者/国 SPXS/US

大規模コンステレーション

Loading constellations...